Location: Katowice
(50.2611°N, 19.0242°E)
Time: 04:53:23
(UTC+02:00)

SR - Visible Passes

Search period start: 20 July 2019 00:00
Search period end: 30 July 2019 00:00
Orbit: 580 x 876 km, 66.7° (Epoch: 19 July)

Date Brightness Start Highest point End Pass type
(mag) Time Alt. Az. Time Alt. Az. Time Alt. Az.
20 Jul ? 00:48:27 10° NW 00:50:45 14° NNW 00:53:08 10° NNE visible
20 Jul ? 02:33:03 10° NNW 02:34:58 12° N 02:36:55 10° NNE visible
20 Jul ? 22:13:11 10° SW 22:17:27 62° NW 22:22:03 10° NNE visible
20 Jul ? 23:57:27 10° WNW 00:00:29 17° NNW 00:03:40 10° NNE visible
21 Jul ? 01:43:06 10° NNW 01:44:34 11° N 01:46:04 10° NNE visible
21 Jul ? 03:25:11 10° NNW 03:28:37 18° NNE 03:32:14 10° ENE visible
21 Jul ? 21:23:32 10° SSW 21:27:49 71° ESE 21:32:24 10° NE visible
21 Jul ? 23:06:43 10° W 23:10:21 24° NNW 23:14:13 10° NNE visible
22 Jul ? 00:52:26 10° NNW 00:54:10 12° N 00:55:57 10° NNE visible
22 Jul ? 02:35:43 10° NNW 02:38:22 14° NNE 02:41:07 10° NE visible
22 Jul ? 04:17:11 10° NNW 04:21:50 36° NE 04:26:49 10° ESE visible
22 Jul ? 22:16:18 10° WSW 22:20:23 38° NW 22:24:45 10° NNE visible
23 Jul ? 00:01:24 10° NW 00:03:49 14° NNW 00:06:20 10° NNE visible
23 Jul ? 01:46:07 10° NNW 01:48:01 12° N 01:49:59 10° NNE visible
23 Jul ? 03:27:43 10° NNW 03:31:50 25° NE 03:36:12 10° E visible
23 Jul ? 21:26:15 10° SW 21:30:34 66° NW 21:35:12 10° NNE visible
23 Jul ? 23:10:27 10° WNW 23:13:34 18° NNW 23:16:50 10° NNE visible
24 Jul ? 00:56:05 10° NNW 00:57:38 11° N 00:59:12 10° NNE visible
24 Jul ? 02:38:17 10° NNW 02:41:42 18° NNE 02:45:17 10° ENE visible
24 Jul ? 22:19:43 10° W 22:23:26 25° NW 22:27:23 10° NNE visible
25 Jul ? 00:05:22 10° NNW 00:07:14 12° N 00:09:09 10° NNE visible
25 Jul ? 01:48:49 10° NNW 01:51:27 14° NNE 01:54:10 10° NE visible
25 Jul ? 03:30:18 10° NNW 03:34:56 35° NE 03:39:55 10° ESE visible
25 Jul ? 21:29:21 10° WSW 21:33:28 39° NW 21:37:54 10° NNE visible
25 Jul ? 23:14:21 10° NW 23:16:53 14° NNW 23:19:30 10° NNE visible
26 Jul ? 00:59:10 10° NNW 01:01:05 12° N 01:03:04 10° NNE visible
26 Jul ? 02:40:51 10° NNW 02:44:56 24° NNE 02:49:17 10° E visible
26 Jul ? 22:23:25 10° WNW 22:26:38 19° NNW 22:30:01 10° NNE visible
27 Jul ? 00:09:04 10° NNW 00:10:41 11° N 00:12:21 10° NNE visible
27 Jul ? 01:51:24 10° NNW 01:54:47 18° NNE 01:58:21 10° ENE visible
27 Jul ? 03:32:55 10° NNW 03:37:55 53° NE 03:43:20 10° SE visible
27 Jul ? 21:32:44 10° W 21:36:31 26° NW 21:40:33 10° NNE visible
27 Jul ? 23:18:19 10° NW 23:20:17 12° N 23:22:19 10° NNE visible
28 Jul ? 01:01:54 10° NNW 01:04:30 14° NNE 01:07:13 10° NE visible
28 Jul ? 02:43:25 10° NNW 02:48:03 34° NE 02:53:01 10° ESE visible
28 Jul ? 04:25:18 10° NW 04:30:24 58° WSW 04:35:53 10° SSE visible
28 Jul ? 22:27:19 10° NW 22:29:57 15° NNW 22:32:41 10° NNE visible
29 Jul ? 00:12:13 10° NNW 00:14:09 12° N 00:16:09 10° NNE visible
29 Jul ? 01:53:58 10° NNW 01:58:02 24° NNE 02:02:21 10° E visible
29 Jul ? 03:35:36 10° NW 03:40:47 84° NE 03:46:24 10° SE visible
29 Jul ? 21:36:25 10° WNW 21:39:43 19° NNW 21:43:12 10° NNE visible
29 Jul ? 23:22:03 10° NNW 23:23:45 12° N 23:25:30 10° NNE visible
